Espace membre
Imprimable
Challenges > Delhalle - Neufchateau, 05/09/2009, BEL - Les Foulées du Bois d'Ospau
Liste des rapports > Delhalle - 16km - Classement
Recherche: Page: [1]
76 Entrées
 
Les réclamations ne sont plus acceptées, les résultats sont considérés comme définitifs.
RangNrNomAgeIOCLigueEquipeRéelTempsTkmMoy.ScrPtsLocalité
1.1134VANDERBECK Yves41BELRIWARONVAU57:4657:473:37 16.6121036MALONNE
2.1529LOMBART Frederic42BELOCAN1:00:281:00:293:47 15.875990GEMBLOUX
3.2276ESSABRI Nasser46BELSERSERUNNER1:03:291:03:323:59 15.1110939
4.1394SOYEZ Frank44BELOXY20001:04:011:04:044:01 14.9811930NIMY
5.309PAQUES Thierry43BELAMC1:04:351:04:374:03 14.8613920BEAUFAYS
6.1017RICHARD Pierre45BELCSDYANTILOB1:05:351:05:384:07 14.6316902LIMELETTE
7.1316LABBE J.Marie49BEL1:06:171:06:204:09 14.4717891EGHEZEE
8.1650NEYMAN Eric41BEL1:06:391:06:424:11 14.3919883HERON
9.2248PIERRARD Christian43BEL1:07:001:07:074:12 14.3020877
10.2346BOUAZZOUZ Smaïl44FRA1:08:011:08:224:17 14.0425858
11.1291SCHALKWIJK Benoît49BELARCH1:09:481:09:524:22 13.7429829TONGRINNE
12.2251ROBERT Michel44BELACDHRC1:11:351:11:394:29 13.4036798MUSSY-LA-VILLE
13.1139LORGE Jean Marc43BELRONVAU1:11:561:12:004:30 13.3338791EGHEZEE
14.2250LEROY Aldo40BEL1:12:091:12:154:31 13.2939787
15.1639DEFRAENE Patrick47FRAANTILOB1:13:231:13:264:36 13.0744765NODEBAIS
16.623PISCART Pierre49BELMOHAOXY20001:14:351:14:414:41 12.8550743MONS
17.2218DEOM Philippe47ACBBS1:14:461:14:544:41 12.8253738
18.404TILBURGS Frank42BELAVN1:14:521:15:004:42 12.8056733MEER
19.2015CONRARD Edgard44BEL1:15:341:15:534:45 12.6565714HABAY
20.2268RONGVAUX Bernard49BELHRC1:16:101:16:224:47 12.5768704VIRTON
21.2009LECOCQ Marc48BELJC THIMEON1:16:021:16:234:47 12.5769704PONT-A-CELLES
22.2262MARTIN Didier Jean43BELRCBG1:16:301:16:374:48 12.5371696BIÈVRE
23.738WILLEMS Lucas48BEL1:16:501:16:554:49 12.4875687SAINT MARTIN
24.354RIGAUX Didier44BELHRC1:17:141:17:344:51 12.3879678MARBEHAN
25.2260TOUSSAINT Didier46BELTRIATHLON SA1:17:491:17:564:53 12.3282667
26.1114DEBREUX Didier45BELHRC1:20:081:20:165:01 11.9699621MARBEHAN
27.2244GRESSE Daniel44BEL1:20:121:20:235:02 11.94100619
28.2014RICHARD Fabrice40BELAC DAMPICOUR1:20:201:20:385:03 11.91102615HEINSCH
29.2291GRANDMONT Jean-Noel42BEL1:20:391:20:425:03 11.90105608NASSOGNE
30.1119HAYOT Didier42BELARCH1:20:511:21:005:04 11.85106605SORINNES
31.2249OGER Michel45BELHRC1:20:541:21:045:04 11.84108602ORSINFAING
32.2333BOULARD Fabian42BEL1:21:121:21:275:06 11.79112594OCHAMPS
33.615D'ANTUONO Michele41BELHRC1:21:231:21:355:06 11.77113590HABAY-LA-NEUVE
34.2306RASSAERTS Rudi49BELJOKA1:21:301:21:365:06 11.76114588WESPELAAR
35.2215ROBLAIN Louis401:21:531:22:035:08 11.70116581
36.617BAIJOT Bernard48BELJCCS1:22:361:22:475:11 11.60123565HOUDREMONT
37.1963BISIAU Philippe48FRA1:23:201:23:365:14 11.48127552LILLE
38.1864DE ROECK Patrick47BELSERSERUNNER1:24:151:24:235:17 11.38131538OUGREE
39.2228PEREMANS Vincent François44BEL1:24:221:24:295:17 11.36132535NASSOGNE
40.2309STREPENNE Andre44BEL1:24:211:24:345:18 11.35133535VAUX-SUR-SURE
41.2243THIRY Jean-Louis43BEL1:24:591:25:165:20 11.26136524
42.2225FANARA Pascal46ITA1:25:051:25:245:21 11.24137522
43.444VAN GENECHTEN Serge48BELAXA TEAM1:25:501:26:005:23 11.16146503WATERLOO
44.901RENAUX Jean-Louis49BELHRC1:25:531:26:045:23 11.15149499HABAY-LA-NEUVE
45.2002VALENTIN Vincent43BELRTL RUNNERS1:26:051:26:125:24 11.14152494LUXEMBOURG
46.2211MILITELLO Franco44BELSERSERUNNER1:25:111:26:165:24 11.13153503BONCELLES
47.2210WOJCIK Eric44BELSERSERUNNER1:25:131:26:175:24 11.13155500SERAING
48.1416VANHOUTTE John46BELRIWA1:26:121:26:195:24 11.12156488RIXENSART
49.1373DECHAMPS Henri47BEL1:26:021:26:205:24 11.12158488BONEFFE
50.1382PATERNOSTRE Jean-Jacques47BELWAIKIKI1:27:401:28:025:31 10.90166461JUMET
51.2331CLARENNE Eddy46BEL1:27:551:28:115:31 10.89167457
52.2010BARNABA Fabrice44BELHRC1:29:031:29:165:35 10.75176435ARLON
53.919ABRASSART Christian47BELBIN1:29:161:29:265:36 10.73177432JODOIGNE
54.2270LIEGEOIS Loc40BEL1:29:251:29:405:37 10.71181425EBLY
55.3000ROZET Denis44BEL1:29:441:29:575:38 10.67186417ARLON
56.229HENRY Stephane49BELJCCS1:29:591:30:115:39 10.64188412GEDINNE
57.1141EVRARD Pierre48BEL1:30:061:30:215:39 10.63191407MALONNE
58.2281GROLLINGER Thierry Louis44BEL1:31:111:31:255:43 10.50199387HAVELANGE
59.2335SCHOUKENS Ronny431:31:031:31:255:43 10.50200387
60.2323FARINELLE Luc44BEL1:32:101:32:215:47 10.40204371
61.2288VERBOOMEN Jean-Louis46BEL1:32:201:32:315:47 10.38205368WATERLOO
62.2303MERNIER Martial42BEL1:34:021:34:245:54 10.17217338LIBRAMONT-CHEVI
63.2221D'ANDREA Jean-Pierre42FRA1:35:201:35:345:59 10.05225316MOYEUVRE-GRANDE
64.2308BARVAUX Vincent44BEL1:35:251:35:466:00 10.02226314NEUFCHÂTEAU
65.2017DE BRABANTER Eric46BEL1:35:411:35:506:00 10.02227310
66.1880DECHIEF Eric47BEL1:36:351:36:466:03 9.92235292MELLIER
67.2267HENNEAUX Thierry46BEL1:36:551:37:086:05 9.88236288ARLON
68.2332KELLER Henri48BEL1:36:591:37:156:05 9.87239284MOIRCY
69.2301WALTZING Jean-Michel41BEL1:37:151:37:366:06 9.84240280LIBRAMONT-CHEVI
70.2283CULOT Didier46BELARCH1:37:251:37:396:07 9.83241277
71.1585D'HONDT Patrick48BEL1:38:151:38:306:10 9.75243268HABAY LA NEUVE
72.2204NOIRHOMME Marc42BEL1:38:441:38:596:12 9.70245261ARLON
73.569CLEMENT Serge49BELHRC1:41:541:42:076:23 9.40254221HACHY
74.1882DEWAELE Philippe48BEL1:42:571:43:166:28 9.30257208LEGLISE
75.1283PEETERS Jacques40BEL1:43:171:43:346:29 9.27258204ALLEUR
DNF1912COLSON Pascal47BELACLOMANAGE
DNF: abandon; DSQ: disqualifié; Vitesse en km/h
Page: [1]